Regional Weather Roundup
Issued by NWS

Home | Current Version | Previous Version | Graphics & Text | Print | Product List | Glossary On
Versions: 1 2 3 4 5 6 7 8 9 10 11 12 13 14 15 16 17 18 19 20 21 22 23 24 25 26 27 28 29 30 31 32 33 34 35 36 37 38 39 40 41 42 43 44 45 46 47 48 49 50
000
ASUS43 KFSD 221602
RWRSD

WEATHER ROUNDUP FOR SOUTH DAKOTA
NATIONAL WEATHER SERVICE SIOUX FALLS SD
1100 AM CDT WED OCT 22 2014

NOTE: "FAIR" INDICATES FEW OR NO CLOUDS BELOW 12,000 FEET WITH NO
SIGNIFICANT WEATHER AND/OR OBSTRUCTIONS TO VISIBILITY.


SDZ001>005-009-010-012>017-221700-
NORTHWEST AND NORTH CENTRAL SOUTH DAKOTA

CITY           SKY/WX    TMP DP  RH WIND       PRES   REMARKS
FAITH            N/A     53  40  61 W16       29.96R
MOBRIDGE       RAIN      55  49  80 NW12      29.88R
$$

SDZ012>016-024>037-041>051-057-063-072>074-221700-
SOUTHWEST AND SOUTH CENTRAL SOUTH DAKOTA

CITY           SKY/WX    TMP DP  RH WIND       PRES   REMARKS
RAPID CTY ARPT CLOUDY    56  35  45 NW12      30.01R
PIERRE         LGT RAIN  53  50  89 NW16      29.94R
CUSTER         PTSUNNY   51  25  36 NW7       30.04R
ELLSWORTH AFB  CLOUDY    56  35  45 NW14      30.00R
PHILIP         CLOUDY    57  42  57 NW16      29.98R
PINE RIDGE     CLOUDY    53  42  66 CALM      30.03R
SPEARFISH      FAIR      50  32  50 W10G17    30.04S
WINNER         CLOUDY    55  49  80 W13       29.97R
$$

SDZ004>011-016>023-039-040-221700-
NORTHEAST SOUTH DAKOTA

CITY           SKY/WX    TMP DP  RH WIND       PRES   REMARKS
ABERDEEN       PTSUNNY   61  47  59 S18       29.87R
WATERTOWN      CLOUDY    57  46  66 S24       29.91S
SISSETON         N/A     62  48  60 S20G26    29.88S
$$

SDZ017-020-022-023-036>040-048>070-221700-
SOUTHEAST SOUTH DAKOTA

CITY           SKY/WX    TMP DP  RH WIND       PRES   REMARKS
SIOUX FALLS    PTSUNNY   61  48  62 S20G31    29.98S
HURON          CLOUDY    62  49  62 S13G23    29.89R
CHAMBERLAIN    LGT RAIN  56  49  76 W14       29.95R
MITCHELL       PTSUNNY   66  52  60 S18G25    29.92R
YANKTON        SUNNY     63  48  59 S17       29.97S
$$

ABBREVIATIONS USED IN REMARKS
   TC - TEMPERATURE IN CELSIUS
  WCI - WIND CHILL INDEX
   HX - HEAT INDEX
  VSB - VISIBILITY




USA.gov is the U.S. government's official web portal to all federal, state and local government web resources and services.